Regional Weather Roundup
Issued by NWS

Home | Current Version | Previous Version | Graphics & Text | Print | Product List | Glossary On
Versions: 1 2 3 4 5 6 7 8 9 10 11 12 13 14 15 16 17 18 19 20 21 22 23 24 25 26 27 28 29 30 31 32 33 34 35 36 37 38 39 40 41 42 43 44 45 46 47 48 49 50
000
ASUS44 KMEG 272300
RWRTN
TENNESSEE HOURLY STATE WEATHER ROUNDUP
NATIONAL WEATHER SERVICE MEMPHIS TN
600 PM CDT FRI MAY 27 2016

TNZ002-004-019-021-049-052-054-088>092-280000-
WEST TENNESSEE

CITY           SKY/WX    TMP DP  RH WIND       PRES   REMARKS
MEMPHIS INTL   CLOUDY    81  68  64 SE10      29.86S
NWS MEMPHIS      N/A     80 N/A N/A MISG        N/A
JACKSON        CLOUDY    79  67  66 CALM      29.89F
DYERSBURG      CLOUDY    79  66  65 S8        29.87F
UNION CITY     SUNNY     77  70  78 S8        29.87F
PARIS          SUNNY     79  64  61 S9        29.91F
LEXINGTON      SUNNY     81  63  54 S9        29.91S
$$

TNZ008-025-027-028-033-062-065-066-280000-
NORTH MIDDLE TENNESSEE

CITY           SKY/WX    TMP DP  RH WIND       PRES   REMARKS
NASHVILLE      CLOUDY    85  65  51 W5        29.93F
CLARKSVILLE    CLOUDY    78  67  68 SW5       29.93S
COOKEVILLE     MOSUNNY   82  72  69 SE3       29.96F
CROSSVILLE     CLOUDY    76  66  71 VRB7      30.04F
$$

TNZ061-075-076-078-094-096-097-280000-
SOUTH MIDDLE TENNESSEE

CITY           SKY/WX    TMP DP  RH WIND       PRES   REMARKS
TULLAHOMA      SUNNY     82  61  47 SW12      29.97S
WINCHESTER     MOSUNNY   86  63  45 S8        29.96S
MCMINNVILLE    SUNNY     81  70  69 SE5       29.97S
COLUMBIA       SUNNY     81  70  69 S6        29.94S
SHELBYVILLE    MOSUNNY   88  64  45 S10       29.95S
$$

TNZ017-018-042-046-047-280000-
NORTHEAST TENNESSEE

CITY           SKY/WX    TMP DP  RH WIND       PRES   REMARKS
TRI CITIES     CLOUDY    70  66  87 CALM      30.07F
$$

TNZ012-013-036-069-073-074-280000-
CENTRAL EAST TENNESSEE

CITY           SKY/WX    TMP DP  RH WIND       PRES   REMARKS
KNOXVILLE      CLOUDY    74  68  81 SE6       30.02F
OAK RIDGE      CLOUDY    76  68  76 CALM      30.03F
GATLINBURG     PTSUNNY   75  64  69 CALM      30.04S
$$

TNZ083-085-099-280000-
SOUTHEAST TENNESSEE

CITY           SKY/WX    TMP DP  RH WIND       PRES   REMARKS
CHATTANOOGA    PTSUNNY   85  63  47 S10G17    29.98F
$$

SKY/WX REPORTED AS FAIR MEANS FEW OR NO CLOUDS BELOW
12 THOUSAND FEET.




USA.gov is the U.S. government's official web portal to all federal, state and local government web resources and services.